| time (UTC) | temp F | wind direction | speed MPH | gust MPH | rain 1hr in | rain 24hr in | rain mn in | humidity % | barometer mb |
| 20260831230333 | 79 | 323 | 4.0 | 0.0 | 0.00 | 0.00 | 0.00 | 21 | 1016.5 |
| 20260831225336 | 79 | 325 | 5.0 | 0.0 | 0.00 | 0.00 | 0.00 | 23 | 1016.3 |
| 20260831224329 | 79 | 336 | 6.0 | 0.0 | 0.00 | 0.00 | 0.00 | 22 | 1016.4 |
| 20260831223331 | 80 | 329 | 3.0 | 0.0 | 0.00 | 0.00 | 0.00 | 22 | 1016.5 |
| 20260831222334 | 80 | 7 | 3.0 | 0.0 | 0.00 | 0.00 | 0.00 | 23 | 1016.5 |
| 20260831221338 | 79 | 340 | 4.0 | 0.0 | 0.00 | 0.00 | 0.00 | 22 | 1016.6 |
| 20260831220328 | 79 | 332 | 1.0 | 0.0 | 0.00 | 0.00 | 0.00 | 23 | 1016.8 |
| 20260831215331 | 78 | 74 | 2.0 | 0.0 | 0.00 | 0.00 | 0.00 | 22 | 1016.7 |
| 20260831214355 | 78 | 12 | 3.0 | 0.0 | 0.00 | 0.00 | 0.00 | 23 | 1016.7 |
| 20260831213357 | 77 | 345 | 2.0 | 0.0 | 0.00 | 0.00 | 0.00 | 24 | 1016.9 |
| 20260831212339 | 77 | 50 | 1.0 | 0.0 | 0.00 | 0.00 | 0.00 | 26 | 1017.1 |
| 20260831211326 | 75 | 36 | 3.0 | 0.0 | 0.00 | 0.00 | 0.00 | 27 | 1017.7 |
| 20260831210349 | 75 | 31 | 3.0 | 0.0 | 0.00 | 0.00 | 0.00 | 29 | 1017.7 |
| 20260831205331 | 74 | 35 | 5.0 | 0.0 | 0.00 | 0.00 | 0.00 | 29 | 1017.7 |
| 20260831204335 | 74 | 74 | 4.0 | 0.0 | 0.00 | 0.00 | 0.00 | 30 | 1017.7 |
| 20260831203358 | 74 | 84 | 5.0 | 0.0 | 0.00 | 0.00 | 0.00 | 30 | 1017.9 |
| 20260831202404 | 73 | 45 | 5.0 | 0.0 | 0.00 | 0.00 | 0.00 | 32 | 1018.0 |
| 20260831201346 | 73 | 70 | 4.0 | 0.0 | 0.00 | 0.00 | 0.00 | 32 | 1018.2 |
| 20260831200350 | 73 | 90 | 3.0 | 0.0 | 0.00 | 0.00 | 0.00 | 32 | 1018.4 |
| 20260831195352 | 73 | 98 | 3.0 | 0.0 | 0.00 | 0.00 | 0.00 | 32 | 1018.9 |
| 20260831194337 | 72 | 349 | 3.0 | 0.0 | 0.00 | 0.00 | 0.00 | 33 | 1018.3 |
| 20260831193325 | 71 | 345 | 1.0 | 0.0 | 0.00 | 0.00 | 0.00 | 32 | 1018.5 |
| 20260831192328 | 71 | 139 | 3.0 | 0.0 | 0.00 | 0.00 | 0.00 | 32 | 1018.7 |
| 20260831191332 | 70 | 150 | 2.0 | 0.0 | 0.00 | 0.00 | 0.00 | 33 | 1019.1 |
| 20260831190335 | 70 | 103 | 3.0 | 0.0 | 0.00 | 0.00 | 0.00 | 35 | 1019.1 |
| 20260831185322 | 69 | 84 | 2.0 | 0.0 | 0.00 | 0.00 | 0.00 | 33 | 1019.2 |
| 20260831184329 | 69 | 151 | 3.0 | 0.0 | 0.00 | 0.00 | 0.00 | 34 | 1019.2 |
| 20260831183336 | 68 | 165 | 3.0 | 0.0 | 0.00 | 0.00 | 0.00 | 36 | 1019.4 |
| 20260831182338 | 67 | 176 | 3.0 | 0.0 | 0.00 | 0.00 | 0.00 | 37 | 1019.8 |
| 20260831181344 | 66 | 81 | 4.0 | 0.0 | 0.00 | 0.00 | 0.00 | 37 | 1020.1 |
| 20260831180327 | 65 | 61 | 4.0 | 0.0 | 0.00 | 0.00 | 0.00 | 37 | 1020.6 |
| 20260831175331 | 65 | 90 | 4.0 | 0.0 | 0.00 | 0.00 | 0.00 | 39 | 1020.0 |
| 20260831174334 | 64 | 69 | 3.0 | 0.0 | 0.00 | 0.00 | 0.00 | 37 | 1020.3 |
| 20260831173341 | 64 | 117 | 2.0 | 0.0 | 0.00 | 0.00 | 0.00 | 39 | 1020.5 |
| 20260831172405 | 64 | 73 | 2.0 | 0.0 | 0.00 | 0.00 | 0.00 | 44 | 1020.5 |
| 20260831171326 | 63 | 15 | 2.0 | 0.0 | 0.00 | 0.00 | 0.00 | 44 | 1020.6 |
| 20260831170329 | 62 | 102 | 1.0 | 0.0 | 0.00 | 0.00 | 0.00 | 46 | 1021.0 |
| 20260831165336 | 60 | 116 | 1.0 | 0.0 | 0.00 | 0.00 | 0.00 | 49 | 1020.7 |
| 20260831164404 | 59 | 127 | 1.0 | 0.0 | 0.00 | 0.00 | 0.00 | 52 | 1020.9 |
| 20260831163326 | 58 | 92 | 3.0 | 0.0 | 0.00 | 0.00 | 0.00 | 56 | 1020.4 |
| 20260831162329 | 57 | 81 | 2.0 | 0.0 | 0.00 | 0.00 | 0.00 | 58 | 1020.5 |
| 20260831161337 | 56 | 91 | 3.0 | 0.0 | 0.00 | 0.00 | 0.00 | 60 | 1020.7 |
| 20260831160344 | 55 | 94 | 2.0 | 0.0 | 0.00 | 0.00 | 0.00 | 62 | 1020.7 |
| 20260831155327 | 54 | 113 | 2.0 | 0.0 | 0.00 | 0.00 | 0.00 | 64 | 1021.0 |
| 20260831154351 | 53 | 115 | 3.0 | 0.0 | 0.00 | 0.00 | 0.00 | 66 | 1021.2 |
| 20260831153335 | 52 | 113 | 3.0 | 0.0 | 0.00 | 0.00 | 0.00 | 69 | 1020.6 |
| 20260831152338 | 51 | 73 | 4.0 | 0.0 | 0.00 | 0.00 | 0.00 | 71 | 1020.8 |
| 20260831151326 | 49 | 75 | 4.0 | 0.0 | 0.00 | 0.00 | 0.00 | 74 | 1020.9 |
| 20260831150328 | 48 | 111 | 4.0 | 0.0 | 0.00 | 0.00 | 0.00 | 77 | 1021.3 |
| 20260831145332 | 48 | 85 | 5.0 | 0.0 | 0.00 | 0.00 | 0.00 | 79 | 1020.7 |
| 20260831144339 | 47 | 93 | 5.0 | 0.0 | 0.00 | 0.00 | 0.00 | 81 | 1020.8 |
| 20260831143326 | 46 | 90 | 4.0 | 0.0 | 0.00 | 0.00 | 0.00 | 83 | 1020.9 |
| 20260831142328 | 46 | 76 | 3.0 | 0.0 | 0.00 | 0.00 | 0.00 | 84 | 1020.6 |
| 20260831141334 | 44 | 82 | 2.0 | 0.0 | 0.00 | 0.00 | 0.00 | 84 | 1021.0 |
| 20260831140357 | 44 | 42 | 1.0 | 0.0 | 0.00 | 0.00 | 0.00 | 84 | 1020.1 |
| 20260831135324 | 43 | 127 | 3.0 | 0.0 | 0.00 | 0.00 | 0.00 | 84 | 1020.3 |
| 20260831134331 | 42 | 84 | 3.0 | 0.0 | 0.00 | 0.00 | 0.00 | 84 | 1020.7 |
| 20260831133334 | 41 | 82 | 3.0 | 0.0 | 0.00 | 0.00 | 0.00 | 84 | 1020.5 |
| 20260831132338 | 41 | 63 | 0.0 | 0.0 | 0.00 | 0.00 | 0.00 | 84 | 1020.6 |
| 20260831131345 | 40 | 124 | 0.0 | 0.0 | 0.00 | 0.00 | 0.00 | 84 | 1019.9 |
| 20260831130349 | 40 | 124 | 0.0 | 0.0 | 0.00 | 0.00 | 0.00 | 84 | 1018.6 |
| 20260831125336 | 40 | 125 | 0.0 | 0.0 | 0.00 | 0.00 | 0.00 | 84 | 1020.3 |
| 20260831124342 | 41 | 124 | 3.0 | 0.0 | 0.00 | 0.00 | 0.00 | 84 | 1019.9 |
| 20260831123329 | 41 | 152 | 2.0 | 0.0 | 0.00 | 0.00 | 0.00 | 84 | 1020.1 |
| 20260831122336 | 40 | 116 | 2.0 | 0.0 | 0.00 | 0.00 | 0.00 | 83 | 1020.0 |
| 20260831121342 | 41 | 138 | 4.0 | 0.0 | 0.00 | 0.00 | 0.00 | 83 | 1019.8 |
| 20260831120326 | 41 | 169 | 2.0 | 0.0 | 0.00 | 0.00 | 0.00 | 83 | 1019.7 |
| 20260831115359 | 41 | 139 | 3.0 | 0.0 | 0.00 | 0.00 | 0.00 | 83 | 1019.5 |
| 20260831114346 | 41 | 147 | 0.0 | 0.0 | 0.00 | 0.00 | 0.00 | 83 | 1019.5 |
| 20260831113327 | 41 | 148 | 1.0 | 0.0 | 0.00 | 0.00 | 0.00 | 83 | 1020.3 |
| 20260831112331 | 42 | 148 | 2.0 | 0.0 | 0.00 | 0.00 | 0.00 | 83 | 1020.2 |
| 20260831111333 | 42 | 158 | 4.0 | 0.0 | 0.00 | 0.00 | 0.00 | 83 | 1020.3 |
| 20260831110343 | 43 | 160 | 4.0 | 0.0 | 0.00 | 0.00 | 0.00 | 83 | 1020.0 |
| 20260831105326 | 42 | 145 | 5.0 | 0.0 | 0.00 | 0.00 | 0.00 | 83 | 1020.1 |
| 20260831104329 | 42 | 144 | 4.0 | 0.0 | 0.00 | 0.00 | 0.00 | 83 | 1020.0 |
| 20260831103336 | 41 | 150 | 2.0 | 0.0 | 0.00 | 0.00 | 0.00 | 82 | 1019.2 |
| 20260831102343 | 41 | 73 | 2.0 | 0.0 | 0.00 | 0.00 | 0.00 | 82 | 1019.1 |
| 20260831101328 | 41 | 73 | 3.0 | 0.0 | 0.00 | 0.00 | 0.00 | 81 | 1019.2 |
| 20260831100354 | 41 | 98 | 2.0 | 0.0 | 0.00 | 0.00 | 0.00 | 81 | 1019.0 |
| 20260831095357 | 42 | 48 | 1.0 | 0.0 | 0.00 | 0.00 | 0.00 | 80 | 1019.3 |
| 20260831094326 | 43 | 48 | 1.0 | 0.0 | 0.00 | 0.00 | 0.00 | 80 | 1019.7 |
| 20260831093330 | 44 | 169 | 1.0 | 0.0 | 0.00 | 0.00 | 0.00 | 79 | 1019.7 |
| 20260831092333 | 44 | 169 | 2.0 | 0.0 | 0.00 | 0.00 | 0.00 | 79 | 1019.7 |
| 20260831091337 | 45 | 130 | 4.0 | 0.0 | 0.00 | 0.00 | 0.00 | 80 | 1019.5 |
| 20260831090340 | 45 | 105 | 2.0 | 0.0 | 0.00 | 0.00 | 0.00 | 80 | 1019.4 |
| 20260831085328 | 44 | 99 | 2.0 | 0.0 | 0.00 | 0.00 | 0.00 | 79 | 1019.1 |
| 20260831084334 | 44 | 99 | 2.0 | 0.0 | 0.00 | 0.00 | 0.00 | 78 | 1018.9 |
| 20260831083357 | 44 | 50 | 2.0 | 0.0 | 0.00 | 0.00 | 0.00 | 77 | 1019.0 |
| 20260831082341 | 45 | 50 | 2.0 | 0.0 | 0.00 | 0.00 | 0.00 | 76 | 1018.9 |
| 20260831081329 | 45 | 86 | 2.0 | 0.0 | 0.00 | 0.00 | 0.00 | 74 | 1018.8 |
| 20260831080332 | 47 | 171 | 1.0 | 0.0 | 0.00 | 0.00 | 0.00 | 74 | 1019.3 |
| 20260831075335 | 47 | 191 | 3.0 | 0.0 | 0.00 | 0.00 | 0.00 | 74 | 1018.7 |
| 20260831074341 | 47 | 191 | 2.0 | 0.0 | 0.00 | 0.00 | 0.00 | 72 | 1018.7 |
| 20260831073329 | 47 | 118 | 2.0 | 0.0 | 0.00 | 0.00 | 0.00 | 69 | 1018.6 |
| 20260831072335 | 49 | 7 | 1.0 | 0.0 | 0.00 | 0.00 | 0.00 | 68 | 1019.1 |
| 20260831071343 | 49 | 358 | 1.0 | 0.0 | 0.00 | 0.00 | 0.00 | 66 | 1019.0 |
| 20260831070325 | 50 | 100 | 2.0 | 0.0 | 0.00 | 0.00 | 0.00 | 64 | 1018.7 |
| 20260831065332 | 50 | 310 | 3.0 | 0.0 | 0.00 | 0.00 | 0.00 | 63 | 1018.4 |
| 20260831064336 | 50 | 310 | 2.0 | 0.0 | 0.00 | 0.00 | 0.00 | 64 | 1018.3 |
| 20260831063343 | 50 | 218 | 3.0 | 0.0 | 0.00 | 0.00 | 0.00 | 64 | 1018.1 |
| 20260831062325 | 52 | 261 | 3.0 | 0.0 | 0.00 | 0.00 | 0.00 | 59 | 1018.5 |
| 20260831061353 | 52 | 321 | 3.0 | 0.0 | 0.00 | 0.00 | 0.00 | 59 | 1018.5 |
| 20260831060335 | 53 | 314 | 2.0 | 0.0 | 0.00 | 0.00 | 0.00 | 60 | 1018.2 |
| 20260831055341 | 52 | 263 | 4.0 | 0.0 | 0.00 | 0.00 | 0.16 | 62 | 1017.9 |
| 20260831054345 | 52 | 200 | 5.0 | 0.0 | 0.00 | 0.00 | 0.16 | 60 | 1017.8 |
| 20260831053352 | 53 | 171 | 4.0 | 0.0 | 0.00 | 0.00 | 0.16 | 58 | 1018.1 |
| 20260831052337 | 54 | 300 | 5.0 | 0.0 | 0.00 | 0.00 | 0.16 | 55 | 1017.9 |
| 20260831051340 | 55 | 263 | 5.0 | 0.0 | 0.00 | 0.00 | 0.16 | 54 | 1017.7 |
| 20260831050325 | 55 | 200 | 3.0 | 0.0 | 0.00 | 0.00 | 0.16 | 55 | 1017.6 |
| 20260831045332 | 57 | 340 | 3.0 | 0.0 | 0.00 | 0.00 | 0.16 | 48 | 1017.4 |
| 20260831044338 | 57 | 339 | 3.0 | 0.0 | 0.00 | 0.00 | 0.16 | 48 | 1017.3 |
| 20260831043340 | 56 | 11 | 0.0 | 0.0 | 0.00 | 0.00 | 0.16 | 49 | 1017.4 |
| 20260831042324 | 56 | 205 | 3.0 | 0.0 | 0.00 | 0.00 | 0.16 | 52 | 1017.3 |
| 20260831041330 | 60 | 203 | 3.0 | 0.0 | 0.00 | 0.00 | 0.16 | 46 | 1016.5 |
| 20260831040337 | 61 | 7 | 5.0 | 0.0 | 0.00 | 0.00 | 0.16 | 43 | 1016.9 |
| 20260831035341 | 61 | 13 | 2.0 | 0.0 | 0.00 | 0.00 | 0.16 | 43 | 1016.6 |
| 20260831034325 | 61 | 320 | 2.0 | 0.0 | 0.00 | 0.00 | 0.16 | 42 | 1016.4 |
| 20260831033349 | 59 | 237 | 4.0 | 0.0 | 0.00 | 0.00 | 0.16 | 47 | 1016.6 |
| 20260831032338 | 59 | 257 | 4.0 | 0.0 | 0.00 | 0.00 | 0.16 | 48 | 1016.5 |
| 20260831031401 | 61 | 248 | 3.0 | 0.0 | 0.00 | 0.00 | 0.16 | 46 | 1016.0 |
| 20260831030326 | 64 | 23 | 6.0 | 0.0 | 0.00 | 0.00 | 0.16 | 39 | 1015.9 |
| 20260831025353 | 65 | 9 | 8.0 | 0.0 | 0.00 | 0.00 | 0.16 | 36 | 1015.3 |
| 20260831024337 | 65 | 356 | 9.0 | 0.0 | 0.00 | 0.00 | 0.16 | 37 | 1015.2 |
| 20260831023343 | 65 | 345 | 9.0 | 0.0 | 0.00 | 0.00 | 0.16 | 37 | 1015.1 |
| 20260831022326 | 65 | 349 | 7.0 | 0.0 | 0.00 | 0.00 | 0.16 | 38 | 1015.1 |
| 20260831021329 | 63 | 334 | 6.0 | 0.0 | 0.00 | 0.00 | 0.16 | 41 | 1015.3 |
| 20260831020352 | 63 | 321 | 6.0 | 0.0 | 0.00 | 0.00 | 0.16 | 41 | 1015.2 |
| 20260831015335 | 65 | 305 | 7.0 | 0.0 | 0.00 | 0.00 | 0.16 | 39 | 1014.8 |
| 20260831014402 | 67 | 306 | 5.0 | 0.0 | 0.00 | 0.00 | 0.16 | 36 | 1014.5 |
| 20260831013344 | 68 | 294 | 4.0 | 0.0 | 0.00 | 0.00 | 0.16 | 35 | 1015.0 |
| 20260831012347 | 69 | 309 | 6.0 | 0.0 | 0.00 | 0.00 | 0.16 | 34 | 1015.0 |
| 20260831011329 | 70 | 296 | 7.0 | 0.0 | 0.00 | 0.00 | 0.16 | 31 | 1014.7 |
| 20260831010335 | 71 | 284 | 8.0 | 0.0 | 0.00 | 0.00 | 0.16 | 29 | 1014.8 |
| 20260831005339 | 72 | 296 | 9.0 | 0.0 | 0.00 | 0.00 | 0.16 | 29 | 1014.8 |
| 20260831004405 | 72 | 289 | 12.0 | 0.0 | 0.00 | 0.00 | 0.16 | 28 | 1014.8 |
| 20260831003328 | 72 | 281 | 12.0 | 0.0 | 0.00 | 0.00 | 0.16 | 27 | 1014.8 |
| 20260831002331 | 72 | 296 | 11.0 | 0.0 | 0.00 | 0.00 | 0.16 | 27 | 1014.9 |
| 20260831001401 | 72 | 299 | 13.0 | 0.0 | 0.00 | 0.00 | 0.16 | 27 | 1015.0 |
| 20260831000344 | 73 | 301 | 14.0 | 0.0 | 0.00 | 0.00 | 0.16 | 26 | 1014.6 |
| 20260830235348 | 73 | 323 | 15.0 | 0.0 | 0.00 | 0.00 | 0.16 | 27 | 1014.7 |
| 20260830234330 | 73 | 278 | 16.0 | 0.0 | 0.00 | 0.00 | 0.16 | 26 | 1014.6 |
| 20260830233325 | 73 | 288 | 15.0 | 0.0 | 0.00 | 0.00 | 0.16 | 27 | 1014.7 |
| 20260830232328 | 73 | 268 | 17.0 | 0.0 | 0.00 | 0.00 | 0.16 | 26 | 1014.6 |
| 20260830231351 | 73 | 270 | 15.0 | 0.0 | 0.00 | 0.00 | 0.16 | 27 | 1014.7 |